Location: Colebrook
(42.0017°N, 73.0973°W)
Time: 14:27:54
(UTC-05:00)

Vanguard 2 - Pass Details

Date: 03 November 2021
Orbit: 554 x 2936 km, 32.9° (Epoch: 04 December)

Event Time Altitude Azimuth Distance (km) Brightness Sun altitude
Exits shadow 02:36:29 11° 118° (ESE) 3,656 11.1 -52.7°
Drops below altitude 10° 02:36:40 10° 118° (ESE) 3,706 11.1 -52.7°
Sets 02:39:17 0° 113° (ESE) 4,421 11.7 -52.3°
